Hourly Weather Roundup
Issued by NWS Central Illinois

Home | Current Version | Previous Version | Graphics & Text | Print | Product List | Glossary On
Versions: 1 2 3 4 5 6 7 8 9 10 11 12 13 14 15 16 17 18 19 20 21 22 23 24 25 26 27 28 29 30 31 32 33 34 35 36 37 38 39 40 41 42 43 44 45 46 47 48 49 50
000
NZUS43 KILX 271210
HWRILX

AREA WEATHER ROUNDUP
NATIONAL WEATHER SERVICE, LINCOLN IL
600 AM CST THU NOV 27 2014


CITY           SKY/WX    TMP DP  RH WIND       PRES   REMARKS
BLOOMINGTON    CLOUDY    23  20  89 NW14      30.32R WCI  11
6HR MIN TEMP:  22; 6HR MAX TEMP:  24;

CHAMPAIGN      CLOUDY    24  20  84 NW15      30.30R FOG     WCI  11
6HR MIN TEMP:  21; 6HR MAX TEMP:  27;

DECATUR        CLOUDY    24  19  81 NW12      30.34R WCI  13
6HR MIN TEMP:  23; 6HR MAX TEMP:  27;

FLORA          CLEAR     25  22  87 NW9       30.37R WCI  15
6HR MIN TEMP:  25; 6HR MAX TEMP:  30;

GALESBURG      CLOUDY    25  22  87 NW8       30.36R WCI  16
JACKSONVILLE   CLOUDY    29  25  84 NW10      30.38R HAZE    WCI  20
6HR MIN TEMP:  21; 6HR MAX TEMP:  29;

LACON          CLOUDY    24  20  85 NW10      30.34R WCI  14
6HR MIN TEMP:  21; 6HR MAX TEMP:  24;

LAWRENCEVILLE  CLOUDY    28  24  85 NW13      30.32R WCI  17
6HR MIN TEMP:  28; 6HR MAX TEMP:  31; 6HR PCP: TRACE;

LITCHFIELD     MOCLDY    23  19  85 NW7       30.37R WCI  14
$$


CITY           SKY/WX    TMP DP  RH WIND       PRES   REMARKS
LINCOLN        CLOUDY    26  22  86 NW7       30.36S WCI  18
6HR MIN TEMP:  23; 6HR MAX TEMP:  27;

MACOMB         CLOUDY    26  23  87 NW13      30.40R WCI  15
MATTOON        PTCLDY    22  18  85 NW16      30.31R WCI   8
6HR MIN TEMP:  21; 6HR MAX TEMP:  27; 6HR PCP: TRACE;

MT CARMEL AP   CLOUDY    30  25  80 NW10      30.32R WCI  21
OLNEY-NOBLE AP CLEAR     23  21  93 NW8       30.35R WCI  14
PARIS          CLOUDY    25  23  94 W8        30.30R FOG     WCI  16
6HR MIN TEMP:  24; 6HR MAX TEMP:  29;

PEORIA         CLOUDY    26  21  81 NW7       30.35R WCI  18
6HR MIN TEMP:  24; 6HR MAX TEMP:  26;

PONTIAC        CLOUDY    24  21  89 NW12      30.32R FOG     WCI  13
RANTOUL        CLOUDY    25  22  86 NW13      30.30R FOG     WCI  14
6HR MIN TEMP:  23; 6HR MAX TEMP:  28;

ROBINSON       CLEAR     26  22  85 NW6       30.34R WCI  19
SPRINGFIELD    CLOUDY    26  22  84 NW9       30.37R WCI  17
6HR MIN TEMP:  23; 6HR MAX TEMP:  26;

TAYLORVILLE    MOCLDY    21  19  93 N7        30.36R WCI  13
$$

...REGIONAL REPORTS...


CITY           SKY/WX    TMP DP  RH WIND       PRES   REMARKS
CHICAGO O`HARE CLOUDY    24  19  81 NW9       30.26R WCI  14
KANKAKEE       CLOUDY   N/A N/A N/A W10       30.29R
MOLINE         CLOUDY    26  20  77 W9        30.36R WCI  17
MOUNT VERNON   CLOUDY    27  19  74 CALM      30.37R
PITTSFIELD     CLOUDY    30  26  85 NW12      30.41R WCI  20
QUINCY         CLOUDY    27  22  81 NW15      30.41R WCI  15
ROCKFORD       CLOUDY    22  18  85 NW9       30.32R WCI  12
$$


CITY           SKY/WX    TMP DP  RH WIND       PRES   REMARKS
BURLINGTON     CLOUDY    26  23  88 NW13      30.39R WCI  15
CEDAR RAPIDS   FLURRIES  18  14  84 NW15      30.39R WCI   4
DES MOINES     PTCLDY     8   0  69 NW13      30.50R WCI  -8
KIRKSVILLE     CLOUDY    25  20  81 NW9       30.45R WCI  15
OTTUMWA        CLOUDY    17  11  77 NW15      30.44R WCI   2
ST LOUIS       CLOUDY    30  24  78 NW9       30.41R WCI  22
$$


CITY           SKY/WX    TMP DP  RH WIND       PRES   REMARKS
TERRE HAUTE    CLEAR     25  19  78 NW3       30.29R
EVANSVILLE     CLOUDY    30  25  81 N13G20    30.32R WCI  20
INDIANAPOLIS   CLOUDY    25  19  78 NW9       30.23R WCI  15
LAFAYETTE      CLOUDY    27  24  89 W8        30.25R FOG     WCI  19
MADISON        MOCLDY    22  16  78 N7        30.29R WCI  13
MILWAUKEE      MOCLDY    24  18  77 NW12      30.24R WCI  13
$$





USA.gov is the U.S. government's official web portal to all federal, state and local government web resources and services.